Flag for Canada Weather past 2 weeks in Dieppe, New Brunswick, Canada

Now
39 °F

Light rain. Low clouds.


Feels Like: 32 °F
Forecast: 32 / 46 °F
Wind: 10 mph from North

Location: Moncton

Current Time: Apr 26, 2015 at 4:45:29 PM

Latest Report: Apr 26, 2015 at 4:00 PM


Visibility: 12 mi

Pressure: 29.60 "Hg

Humidity: 87%

Dew point: 36 °F

Location of DieppeLocation

Historic Weather in Dieppe — Graph

°F

Dieppe temperature yesterday

Maximum temperature yesterday: 43 °F (at 2:00 PM)
Minimum temperature yesterday: 32 °F (at 11:00 PM)
Average temperature yesterday: 37 °F

Past Weeks' High & Low Weather Summary

 TemperatureHumidityPressure
High61 °F (Apr 13, 3:00 PM)100% (Apr 22, 4:00 AM)30.38 "Hg (Apr 22, 4:00 AM)
Low23 °F (Apr 16, 4:00 AM)27% (Apr 16, 5:00 PM)29.41 "Hg (Apr 11, 3:00 PM)
Average39 °F72%29.91 "Hg
* Reported Apr 11 3:00 PM — Apr 26 3:00 PM, Dieppe, Weather by CustomWeather, © 2015

Note: Actual official high and low records may vary slightly from our data, if they occured in-between our weather recording intervals... More about our weather records

Advertising

Dieppe weather history for previous 24 hours

 ConditionsComfort  
Time TempWeatherWind HumidityBarometerVisibility
3:00 PM
Sun, Apr 26
43 °FMore clouds than sun.13 mph76%29.59 "Hg15 mi
2:00 PM43 °FMostly cloudy.14 mph71%29.59 "Hg15 mi
1:00 PM45 °FPartly sunny.12 mph66%29.59 "Hg15 mi
12:00 PM45 °FBroken clouds.No wind76%29.59 "Hg15 mi
11:00 AM43 °FPartly sunny.2 mph76%29.60 "Hg15 mi
10:00 AM39 °FScattered clouds.5 mph100%29.60 "Hg15 mi
9:00 AM34 °FPassing clouds.3 mph93%29.61 "Hg15 mi
8:00 AM30 °FPassing clouds.5 mph93%29.61 "Hg15 mi
7:00 AM27 °FIce fog.6 mph93%29.60 "Hg1 mi
6:55 AM25 °FIce fog.6 mph100%29.60 "Hg1 mi
6:00 AM27 °FIce fog.3 mph93%29.60 "Hg5 mi
5:00 AM25 °FIce fog.No wind100%29.60 "Hg1 mi
4:00 AM27 °FIce fog.3 mph100%29.60 "Hg0 mi
3:00 AM28 °FIce fog.7 mph93%29.60 "Hg0 mi
2:00 AM28 °FIce fog.7 mph100%29.60 "Hg0 mi
1:00 AM30 °FIce fog.5 mph93%29.61 "Hg6 mi
12:00 AM32 °FPassing clouds.3 mph93%29.61 "Hg15 mi
11:00 PM
Sat, Apr 25
32 °FPassing clouds.3 mph93%29.62 "Hg15 mi
10:00 PM34 °FPassing clouds.6 mph93%29.64 "Hg15 mi
9:00 PM36 °FScattered clouds.2 mph87%29.63 "Hg15 mi
8:00 PM37 °FPartly sunny.8 mph87%29.62 "Hg15 mi
7:00 PM39 °FPartly sunny.6 mph81%29.61 "Hg15 mi
6:00 PM41 °FScattered showers. Partly sunny.6 mph76%29.60 "Hg15 mi
5:00 PM41 °FPartly sunny.9 mph87%29.60 "Hg15 mi
4:00 PM43 °FSprinkles. Partly sunny.2 mph76%29.59 "Hg15 mi
Weather by CustomWeather, © 2015

See weather overviewHow to use our weather pages